Location: El Manguito
(10.2358°N, 67.3634°W)
Time: 14:21:22
(UTC+00:00)

NOSS 3-2 (A) - Pass Details

Date: 01 April 2023
Orbit: 732 x 1475 km, 63.4° (Epoch: 19 May)

Event Time Altitude Azimuth Distance (km) Brightness Sun altitude
Rises 23:27:49 0° 337° (NNW) 4,337 7.3 -12.5°
Reaches altitude 10° 23:30:35 10° 337° (NNW) 3,438 6.8 -13.2°
Maximum altitude 23:39:17 88° 66° (ENE) 1,465 4.3 -15.3°
Drops below altitude 10° 23:48:23 10° 156° (SSE) 3,584 6.1 -17.5°
Sets 23:51:18 0° 157° (SSE) 4,529 6.7 -18.2°
